Terug naar catalogus

STARLINK-6179

ActiefCommunicatieVLEO
NORAD 56910·PAYLOAD·🇺🇸 United States

Gelanceerd Jun 12, 2023 vanaf Cape Canaveral Space Force Station

Loading…

Volgende Passages (komende 24 uur)

TLE

VersSource: CelesTrak SupGP

Epoch: Sep 15, 2026, 02:30 UTC

1 56910C 23083AL  26258.10465278 -.00025158  00000+0 -91110-3 0  2588
2 56910  43.0014  80.9782 0001369 269.9288 195.2991 15.27595859    15

Volg STARLINK-6179 in realtime met AllMySat

Download on the App Store